Weather Roundup
Issued by NWS

Home | Current Version | Previous Version | Text Only | Print | Product List | Glossary On
Versions: 1 2 3 4 5 6 7 8 9 10 11 12 13 14 15 16 17 18 19 20 21 22 23 24 25 26 27 28 29 30 31 32 33 34 35 36 37 38 39 40 41 42 43 44 45 46 47 48 49 50
000
NZUS93 KARX 192010
HRRWXR

CURRENT HOURLY OBSERVATIONS ACROSS
MUCH OF THE UPPER MISSISSIPPI VALLEY
NATIONAL WEATHER SERVICE LA CROSSE WI
300 PM CDT SAT APR 19 2014


...SOUTHEAST MINNESOTA...


CITY           SKY/WX    TMP DP  RH WIND       PRES   REMARKS
ROCHESTER      CLOUDY    63  40  42 S20G30    30.07F
ROCHESTER/MAYO CLOUDY    63  35  35 SE8G25    30.07F
WINONA           N/A    N/A N/A N/A MISG        N/A
AUSTIN         PTSUNNY   66  37  34 S14G22    30.06S
ALBERT LEA     MOSUNNY   72  43  35 S17G24    30.02F
DODGE CENTER   PTSUNNY   64  39  39 S18       30.06S
PRESTON        MOSUNNY   67  40  36 S20G28    30.09F
OWATONNA       MOSUNNY   68  45  42 S22G30    30.03F
FARIBAULT      MOSUNNY   70  37  30 SE24      30.02F
$$

...ELSEWHERE IN MINNESOTA...


CITY           SKY/WX    TMP DP  RH WIND       PRES   REMARKS
MINNEAPOLIS    PTSUNNY   66  43  43 S14G23    30.00F
INTNL FALLS    PTSUNNY   51  37  58 S9G20     29.85F
DULUTH         CLOUDY    37  30  75 SE10      30.01F WCI  30
RED WING       CLOUDY    63  37  39 S14       30.04F
REDWOOD FALLS  PTSUNNY   67  47  48 NW14      29.97R
MANKATO        CLOUDY    70  43  37 S20G28    29.97F
WORTHINGTON    MOSUNNY   72  45  37 SW16      30.00S
FAIRMONT       CLOUDY    73  45  35 SW17      30.00S
$$

...SOUTHWEST WISCONSIN...


CITY           SKY/WX    TMP DP  RH WIND       PRES   REMARKS
LA CROSSE      MOSUNNY   67  34  29 S16       30.12F
PRAIRIE DU CHI MOSUNNY   68  33  27 S10G20    30.15F
BOSCOBEL       MOSUNNY   71  35  26 VRB7G17   30.17F
LONE ROCK      MOSUNNY   67  36  31 S16       30.19F
PLATTEVILLE    MOSUNNY   66  35  31 S17       30.21F
FORT MC COY    MOSUNNY   68  33  27 S15G22    30.15F
CAMP DOUGLAS   SUNNY     64  35  33 S16G24    30.16F
VIROQUA        FAIR      65  36  34 S20G25    30.15F
WIS DELLS      SUNNY     63  33  32 S14G22    30.20F
$$

...ELSEWHERE IN WISCONSIN...


CITY           SKY/WX    TMP DP  RH WIND       PRES   REMARKS
MILWAUKEE      PTSUNNY   50  35  56 SE12      30.33F
MADISON        PTSUNNY   64  34  32 S16G25    30.24F
GREEN BAY      MOSUNNY   52  36  54 SE14      30.28F
EAU CLAIRE     CLOUDY    64  34  32 S17       30.08F
BLACK RVR FLS  FAIR      68  32  26 S15G21    30.13F
MEDFORD        SUNNY     55  35  46 SE15G26   30.14F
WAUSAU         SUNNY     57  31  37 S14G22    30.18F
WIS RAPIDS     SUNNY     63  31  30 SE10G23   30.19F
MARSHFIELD     SUNNY     61  36  39 S18G24    30.16F
RICE LAKE      CLOUDY    58  33  38 S17       30.06S
$$

...NORTHEAST IOWA...


CITY           SKY/WX    TMP DP  RH WIND       PRES   REMARKS
WATERLOO       MOSUNNY   72  40  31 S26G36    30.09F
DUBUQUE        MOSUNNY   67  35  30 S23       30.19F
DECORAH        MOSUNNY   68  37  32 S17G28    30.11S
MASON CITY     NOT AVBL
CHARLES CITY   MOSUNNY   70  43  37 S21G33    30.08F
OELWEIN        MOSUNNY  N/A N/A N/A S21G30    30.12F
$$

...ELSEWHERE IN IOWA...


CITY           SKY/WX    TMP DP  RH WIND       PRES   REMARKS
DES MOINES     CLOUDY    77  44  30 S21G28    30.08F
IOWA CITY      CLOUDY    73  44  35 S18       30.16F
FORT DODGE     MOSUNNY   79  46  31 S20G32    30.03S
MARSHALLTOWN   PTSUNNY   74  44  34 S21G28    30.08F
CEDAR RAPIDS   CLOUDY    72  40  31 SE16G26   30.13F
$$

...NORTHERN ILLINOIS...


CITY           SKY/WX    TMP DP  RH WIND       PRES   REMARKS
CHICAGO-OHARE  PTSUNNY   63  36  36 SE9       30.29F
DUPAGE         MOSUNNY   67  34  29 SE10      30.27F
CHICAGO-MIDWAY PTSUNNY   61  40  45 E9        30.29F
MOLINE         MOSUNNY   73  35  25 S10G20    30.19F
ROCKFORD       PTSUNNY   67  35  30 S12       30.26F
STERLING       MOSUNNY   70  36  28 S10G17    30.23F
PEORIA         SUNNY     73  35  25 S7        30.23F
$$

NOTE: "FAIR" INDICATES FEW OR NO CLOUDS BELOW 12,000 FEET WITH NO
SIGNIFICANT WEATHER AND/OR OBSTRUCTIONS TO VISIBILITY. WIND
SPEEDS ARE IN MILES-PER-HOUR.



USA.gov is the U.S. government's official web portal to all federal, state and local government web resources and services.